Location: Street
(51.1247°N, 2.7429°W)
Time: 09:44:39
(UTC+00:00)

Tiros 1 - Pass Details

Date: 27 November 2020
Orbit: 630 x 663 km, 48.4° (Epoch: 21 January)

Event Time Altitude Azimuth Distance (km) Brightness Sun altitude
Rises 15:59:28 0° 215° (SW) 2,985 12.3 0.5°
Reaches altitude 10° 16:02:08 10° 203° (SSW) 2,074 10.9 0.1°
Maximum altitude 16:06:02 25° 148° (SSE) 1,319 8.8 -0.4°
Drops below altitude 10° 16:09:56 10° 93° (E) 2,071 9.3 -0.9°
Sets 16:12:35 0° 81° (E) 2,980 10.0 -1.2°
